This demonstration page uses our WeatherBlox Daily Observations layout. Learn more.

Left ArrowRight Arrow

Hourly Observations for November 30, 2021

Temp ( °F °C ) Dew Point ( °F °C ) Humidity (%) Winds ( mph kmh ) Pressure ( in mb ) Visibility ( mi km ) Precip ( " mm )
12:15 am 00:15 Clear 52 11.2 35 1.7 52 52 SSW 10 17 30.08 1019 10 16 N/A
12:35 am 00:35 Clear 52 10.9 36 2 54 54 SSW 10 17 30.08 1019 10 16 N/A
12:55 am 00:55 Clear 51 10.4 36 2.2 57 57 SSW 10 17 30.09 1019 10 16 N/A
1:15 am 01:15 Clear 50 10.2 37 2.5 59 59 SSW 9 15 30.08 1019 10 16 N/A
1:35 am 01:35 Clear 49 9.5 36 2.4 62 62 SW 8 13 30.09 1019 10 16 N/A
1:55 am 01:55 Clear 49 9.3 37 2.6 63 63 SSW 8 13 30.09 1019 10 16 N/A
2:15 am 02:15 Clear 49 9.2 37 3 65 65 SW 9 15 30.08 1019 10 16 N/A
2:35 am 02:35 Clear 49 9.3 38 3.1 66 66 SW 9 15 30.08 1019 10 16 N/A
2:55 am 02:55 Clear 49 9.2 38 3.4 67 67 SW 8 13 30.08 1019 10 16 N/A
3:15 am 03:15 Clear 48 9 38 3.5 69 69 SW 8 13 30.09 1019 10 16 N/A
3:35 am 03:35 Clear 47 8.6 38 3.5 71 71 SW 8 13 30.08 1019 10 16 N/A
3:55 am 03:55 Clear 46 8 38 3.1 71 71 SW 7 11 30.09 1019 10 16 N/A
4:15 am 04:15 Clear 46 8 37 3 71 71 SW 7 11 30.09 1019 10 16 N/A
4:35 am 04:35 Clear 46 8 37 2.7 69 69 SW 9 15 30.08 1019 10 16 N/A
4:55 am 04:55 Clear 46 8 38 3.1 71 71 SW 8 13 30.08 1019 10 16 N/A
5:15 am 05:15 Clear 46 7.5 37 3 73 73 SW 8 13 30.08 1019 10 16 N/A
5:35 am 05:35 Clear 45 7 37 2.7 74 74 SW 7 11 30.09 1019 10 16 N/A
5:55 am 05:55 Clear 45 7.4 37 2.8 73 73 WSW 5 7 30.08 1019 10 16 N/A
6:15 am 06:15 Clear 46 8 37 2.9 70 70 SW 8 13 30.08 1019 10 16 N/A
6:35 am 06:35 Clear 46 7.7 37 2.5 70 70 SW 8 13 30.09 1019 10 16 N/A
6:55 am 06:55 Clear 46 8 36 2.3 68 68 SW 8 13 30.09 1019 10 16 N/A
7:15 am 07:15 Clear 45 7.3 36 2 69 69 WSW 8 13 30.10 1019 10 16 N/A
7:35 am 07:35 Sunny 45 7.1 35 1.6 68 68 SW 9 15 30.10 1019 10 16 N/A
7:55 am 07:55 Sunny 45 7.3 35 1.7 68 68 SW 10 17 30.11 1020 10 16 N/A
8:15 am 08:15 Sunny 47 8.5 35 1.7 63 63 SW 9 15 30.10 1019 10 16 N/A
8:35 am 08:35 Sunny 49 9.4 36 2 60 60 WSW 9 15 30.09 1019 10 16 N/A
8:55 am 08:55 Sunny 52 11.2 36 2.3 55 55 WSW 9 15 30.07 1018 10 16 N/A
9:15 am 09:15 Sunny 55 12.9 37 2.6 50 50 WSW 7 11 30.05 1018 10 16 N/A
9:35 am 09:35 Sunny 57 13.8 37 2.5 47 47 WSW 7 11 30.04 1017 10 16 N/A
9:55 am 09:55 Sunny 60 15.5 36 2.4 42 42 SW 9 15 30.03 1017 10 16 N/A
10:15 am 10:15 Sunny 62 16.8 35 1.9 37 37 WSW 8 13 30.01 1016 10 16 N/A
10:35 am 10:35 Sunny 66 18.7 32 -0.1 28 28 WSW 9 15 29.99 1016 10 16 N/A
10:55 am 10:55 Sunny 66 18.8 31 -0.3 28 28 W 9 15 29.99 1016 10 16 N/A
11:15 am 11:15 Sunny 67 19.5 32 -0.1 27 27 W 9 15 29.98 1015 10 16 N/A
11:35 am 11:35 Sunny 69 20.4 31 -0.5 25 25 W 9 15 29.97 1015 10 16 N/A
11:55 am 11:55 Sunny 69 20.7 29 -1.4 23 23 W 8 13 29.96 1014 10 16 N/A
12:15 pm 12:15 Sunny 71 21.4 29 -1.5 22 22 W 8 13 29.94 1014 10 16 N/A
12:35 pm 12:35 Sunny 71 21.6 28 -2 21 21 W 8 13 29.93 1013 10 16 N/A
12:55 pm 12:55 Sunny 73 22.7 27 -3 18 18 W 8 13 29.91 1013 10 16 N/A
1:15 pm 13:15 Sunny 74 23.1 26 -3.1 17 17 W 7 11 29.89 1012 10 16 N/A
1:35 pm 13:35 Sunny 74 23.5 26 -3.6 16 16 WSW 6 9 29.88 1012 10 16 N/A
1:55 pm 13:55 Sunny 75 23.7 26 -3.3 16 16 W 8 13 29.88 1012 10 16 N/A
2:15 pm 14:15 Sunny 75 23.9 27 -3 17 17 WSW 7 11 29.86 1011 10 16 N/A
2:35 pm 14:35 Sunny 75 24.1 26 -3.1 16 16 W 6 9 29.85 1011 10 16 N/A
2:55 pm 14:55 Sunny 76 24.4 26 -3.2 16 16 WSW 9 15 29.85 1011 10 16 N/A
3:15 pm 15:15 Sunny 76 24.6 26 -3.4 15 15 W 10 17 29.85 1011 10 16 N/A
3:35 pm 15:35 Sunny 76 24.4 26 -3.4 16 16 W 8 13 29.85 1011 10 16 N/A
3:55 pm 15:55 Sunny 76 24.3 26 -3.5 16 16 WSW 8 13 29.86 1011 10 16 N/A
4:15 pm 16:15 Sunny 75 24 25 -3.7 16 16 SW 6 9 29.86 1011 10 16 N/A
4:35 pm 16:35 Sunny 75 23.8 26 -3.4 16 16 WSW 8 13 29.86 1011 10 16 N/A
4:55 pm 16:55 Sunny 74 23.6 27 -2.9 17 17 SW 7 11 29.87 1011 10 16 N/A
5:15 pm 17:15 Sunny 73 22.7 27 -2.8 18 18 SW 8 13 29.89 1012 10 16 N/A
5:35 pm 17:35 Sunny 70 21 28 -2.5 21 21 WSW 6 9 29.91 1013 10 16 N/A
5:55 pm 17:55 Clear 67 19.7 28 -2.5 22 22 WSW 6 9 29.92 1013 10 16 N/A
6:15 pm 18:15 Clear 65 18.5 28 -2.4 24 24 WSW 6 9 29.95 1014 10 16 N/A
6:35 pm 18:35 Clear 63 17.4 28 -2.5 26 26 WSW 7 11 29.97 1015 10 16 N/A
6:55 pm 18:55 Clear 62 16.7 29 -1.8 28 28 WSW 6 9 29.98 1015 10 16 N/A
7:15 pm 19:15 Clear 62 16.8 28 -2.1 28 28 NW 9 15 29.99 1016 10 16 N/A
7:35 pm 19:35 Clear 59 15.1 26 -3.6 28 28 NNW 7 11 30.02 1017 10 16 N/A
7:55 pm 19:55 Clear 57 14 25 -3.8 29 29 N 8 13 30.04 1017 10 16 N/A
8:15 pm 20:15 Clear 54 12 26 -3.6 34 34 NNW 9 15 30.07 1018 10 16 N/A
8:35 pm 20:35 Clear 54 12.3 26 -3.1 34 34 NNW 7 11 30.08 1018 10 16 N/A
8:55 pm 20:55 Clear 56 13.5 28 -2.4 33 33 NNW 8 13 30.07 1018 10 16 N/A
9:15 pm 21:15 Clear 55 13 28 -2.2 35 35 NNW 8 13 30.08 1019 10 16 N/A
9:35 pm 21:35 Clear 54 12.4 28 -2.2 36 36 NNW 9 15 30.08 1019 10 16 N/A
9:55 pm 21:55 Clear 53 11.7 28 -2.1 38 38 NNW 9 15 30.10 1019 10 16 N/A
10:15 pm 22:15 Clear 52 11 28 -2 41 41 NNW 8 13 30.11 1020 10 16 N/A
10:35 pm 22:35 Clear 51 10.5 28 -2 42 42 NNW 9 15 30.13 1020 10 16 N/A
10:55 pm 22:55 Clear 50 10 28 -2 43 43 NNW 8 13 30.13 1020 10 16 N/A
11:15 pm 23:15 Clear 50 9.9 28 -2 44 44 NNW 9 15 30.13 1020 10 16 N/A
11:35 pm 23:35 Clear 49 9.5 28 -2 45 45 NNW 9 15 30.14 1021 10 16 N/A
11:55 pm 23:55 Clear 49 9.4 29 -1.7 46 46 NW 7 11 30.14 1021 10 16 N/A

Powered by AerisWeather